Location: Normandy Village
(37.8755°N, 122.2655°W)
Time: 22:04:22
(UTC+00:00)

Cosmos 1553 Rocket - Pass Details

Date: 22 September 2019
Orbit: 941 x 1009 km, 82.9° (Epoch: 20 October)

Event Time Altitude Azimuth Distance (km) Brightness Sun altitude
Rises 12:44:57 0° 344° (NNW) 3,681 7.0 -14.9°
Reaches altitude 10° 12:47:38 10° 337° (NNW) 2,719 6.2 -14.4°
Maximum altitude 12:53:18 39° 271° (W) 1,409 4.4 -13.3°
Drops below altitude 10° 12:58:52 10° 205° (SSW) 2,665 6.0 -12.2°
Sets 13:01:29 0° 198° (SSW) 3,599 6.7 -11.7°
